This demonstration page uses our WeatherBlox Daily Observations layout. Learn more.

Left ArrowRight Arrow

39.01783, -85.05884

Hourly Observations for May 17, 2015

Temp ( °F °C ) Dew Point ( °F °C ) Humidity (%) Winds ( mph kmh ) Pressure ( in mb ) Visibility ( mi km ) Precip ( " mm )
12:52 am 00:52 Mostly Cloudy 69 20.6 66 18.9 90 90 S 7 11 30.10 1019 10 16 0.00 0.00
1:52 am 01:52 Cloudy 68 20 66 18.9 93 93 S 6 9 30.09 1019 10 16 0.00 0.00
2:52 am 02:52 Cloudy 68 20 66 18.9 93 93 SSE 5 7 30.08 1019 8 13 0.00 0.00
3:52 am 03:52 Cloudy 68 20 66 18.9 93 93 SSE 5 7 30.08 1019 7 11 0.00 0.00
4:52 am 04:52 Cloudy with Mist and Fog 67 19.4 66 18.9 97 97 SSE 5 7 30.09 1019 6 10 0.00 0.03
5:52 am 05:52 Cloudy 68 20 66 18.9 93 93 S 7 11 30.11 1020 7 11 0.00 0.00
6:52 am 06:52 Cloudy with Mist and Fog 69 20.6 66 18.9 90 90 S 6 9 30.12 1020 6 10 0.00 0.00
7:52 am 07:52 Mostly Cloudy 70 21.1 66 18.9 87 87 SSW 9 15 30.13 1020 8 13 0.00 0.00
8:52 am 08:52 Mostly Cloudy 71 21.7 66 18.9 84 84 S 9 15 30.13 1020 10 16 0.00 0.00
9:52 am 09:52 Partly Cloudy 74 23.3 67 19.4 79 79 SSW 9 15 30.12 1020 10 16 0.00 0.00
10:52 am 10:52 Mostly Cloudy 76 24.4 67 19.4 74 74 SW 9 15 30.12 1020 10 16 0.00 0.00
11:52 am 11:52 Mostly Cloudy 77 25 67 19.4 71 71 SSW 10 17 30.12 1020 10 16 0.00 0.00
12:52 pm 12:52 Mostly Cloudy 79 26.1 68 20 69 69 SSW 10 17 30.12 1020 10 16 0.00 0.00
1:52 pm 13:52 Mostly Cloudy 81 27.2 69 20.6 67 67 SSW 12 19 30.11 1020 10 16 0.00 0.00
2:28 pm 14:28 Mostly Cloudy 81 27 66 19 62 62 SSW 13 20 30.09 1019 10 16 0.00 0.00
2:52 pm 14:52 Mostly Cloudy with Light Rain 78 25.6 68 20 71 71 SSW 9 15 30.10 1019 8 13 0.00 0.03
3:04 pm 15:04 Mostly Cloudy with Rain 73 23 66 19 78 78 S 15 24 30.12 1020 2 3 0.00 0.00
3:09 pm 15:09 Mostly Cloudy with Light Rain 73 23 66 19 78 78 SSW 16 26 30.09 1019 4 6 0.02 0.51
3:52 pm 15:52 Partly Cloudy 78 25.6 70 21.1 76 76 SSW 10 17 30.07 1018 10 16 0.03 0.76
4:52 pm 16:52 Mostly Cloudy 80 26.7 68 20 67 67 S 10 17 30.06 1018 10 16 0.00 0.00
5:52 pm 17:52 Partly Cloudy 81 27.2 67 19.4 62 62 SSW 13 20 30.05 1018 10 16 0.00 0.00
6:52 pm 18:52 Partly Cloudy 80 26.7 67 19.4 64 64 SSW 12 19 30.04 1017 10 16 0.00 0.00
7:52 pm 19:52 Partly Cloudy 78 25.6 66 18.9 67 67 S 13 20 30.04 1017 10 16 0.00 0.00
8:52 pm 20:52 Partly Cloudy 77 25 66 18.9 69 69 SSW 8 13 30.06 1018 10 16 0.00 0.00
9:52 pm 21:52 Partly Cloudy 74 23.3 68 20 82 82 S 8 13 30.07 1018 10 16 0.00 0.00
10:52 pm 22:52 Partly Cloudy 73 22.8 68 20 84 84 S 7 11 30.08 1019 10 16 0.00 0.00
11:52 pm 23:52 Partly Cloudy 73 22.8 68 20 84 84 SSW 8 13 30.08 1019 10 16 0.00 0.00

Powered by AerisWeather